Temperature
23 22 22 22 23 26 26 27 28 28 29 29 29 28 27 26 24 22 22 22 21 20 21 21 21 20 20 20 20 20 20 20 19 20 19 19 19 19 19 19 19 19 19 19 19 19 19 19 19
23 22 22 23 24 26 26 28 28 29 29 29 29 28 27 25 24 23 22 22 21 20 21 20 21 20 20 20 20 20 20 20 19 19 19 19 19 19 19 19 19 19 19 19 19 19 19 19 19
23 23 24 24 26 26 26 28 28 29 29 29 28 26 25 25 24 22 22 22 21 20 20 20 20 20 20 20 20 20 20 19 19 19 19 19 19 19 19 19 19 19 19 19 19 19 19 19 19
24 25 26 26 27 27 27 28 29 29 29 28 28 26 24 24 23 22 22 22 21 20 20 20 20 20 20 20 20 19 19 19 19 19 19 19 19 19 19 19 19 19 19 19 19 19 19 19 19
25 26 25 26 27 28 28 29 28 28 28 27 26 25 23 23 23 22 22 22 21 20 20 20 20 20 20 20 20 19 19 19 19 19 19 19 19 19 19 19 19 19 19 19 19 19 19 19 18
27 26 24 25 26 28 28 28 27 27 27 26 26 24 23 22 22 22 22 22 21 20 20 20 20 20 20 20 19 19 19 19 19 19 19 19 19 19 19 19 19 19 19 19 19 19 19 18 18
27 26 25 26 26 27 28 27 27 26 26 25 25 24 22 22 22 22 22 22 21 21 20 20 20 20 20 20 20 20 19 19 19 19 19 19 19 19 19 19 19 19 19 19 19 19 18 18 18
27 27 26 25 25 26 27 27 26 25 24 23 23 22 21 21 21 21 21 21 21 21 20 20 20 19 19 20 19 19 19 19 19 19 19 19 19 19 19 19 19 19 19 19 19 19 18 18 18
28 26 24 25 25 25 26 26 25 24 23 22 21 20 20 21 21 21 21 21 21 21 20 20 20 19 19 19 19 19 19 19 19 19 19 19 19 19 19 18 18 18 19 19 19 19 19 18 18
29 25 24 26 26 25 24 24 24 23 21 21 20 20 20 20 20 20 20 20 20 20 20 20 20 20 19 19 19 19 19 19 19 19 19 19 19 18 18 18 18 18 18 19 19 19 19 18 18
28 26 27 27 26 25 24 22 21 22 20 19 19 19 19 19 19 19 19 19 19 19 19 20 20 20 19 19 19 19 19 19 19 19 18 18 18 18 18 18 18 18 18 19 19 18 19 19 18
27 26 27 26 25 25 24 22 20 19 18 18 18 18 19 19 19 18 18 19 19 19 19 19 19 19 19 19 19 19 19 19 19 19 18 18 18 18 18 18 18 18 18 18 18 18 18 19 19
26 25 25 24 24 23 22 21 20 19 19 19 19 19 19 19 18 18 18 18 18 18 18 19 19 19 19 19 19 19 19 19 19 18 18 18 18 18 18 18 18 18 18 18 18 18 19 19 19
26 26 25 24 24 23 22 21 20 19 19 19 19 19 19 18 18 18 18 18 18 18 18 18 18 18 18 18 18 18 18 19 19 18 18 18 18 18 18 18 18 18 18 18 18 18 19 19 19
26 26 25 25 25 24 24 21 20 19 20 19 19 19 19 19 19 18 18 17 17 17 17 17 17 17 17 17 18 18 18 18 18 18 18 18 18 18 18 18 18 18 18 18 18 19 19 19 19
28 26 24 25 25 25 24 21 20 20 20 20 20 19 19 19 19 18 17 17 16 16 16 16 17 17 17 17 17 17 18 18 18 18 18 18 18 18 18 18 18 18 18 18 18 19 19 19 19
27 25 23 23 25 25 24 21 20 20 20 20 20 20 19 19 18 17 17 16 16 16 16 16 16 16 16 16 16 17 17 17 17 18 18 18 18 18 18 18 18 18 18 18 18 18 18 18 19
26 26 25 24 24 24 23 21 21 20 20 20 19 19 19 18 17 17 16 16 15 15 15 15 15 15 15 15 16 16 17 17 17 17 17 18 18 18 17 18 18 18 18 18 18 18 18 18 18
28 27 27 25 24 24 23 22 21 20 20 19 19 19 18 17 17 16 15 15 15 14 14 14 14 14 15 15 15 15 16 16 16 17 17 17 17 17 17 18 17 17 17 18 18 18 18 18 18
28 27 27 25 24 24 23 22 21 20 20 19 19 18 18 17 16 15 15 14 14 14 14 14 14 14 14 14 14 14 15 15 16 16 16 17 17 17 17 17 17 17 17 17 17 17 17 18 18
27 26 25 25 24 24 23 22 21 21 20 19 18 18 17 16 15 15 14 14 14 13 13 13 13 13 13 14 14 14 14 15 15 16 16 16 16 16 16 17 17 17 17 17 17 17 17 17 17
25 25 24 24 24 23 23 21 20 21 20 19 18 17 16 16 15 14 14 13 13 13 13 13 13 13 13 13 13 14 14 14 15 15 15 16 16 16 16 16 16 17 17 17 17 17 17 17 17
24 24 24 24 23 23 24 23 20 21 19 18 18 17 16 15 15 14 14 13 13 13 12 12 13 13 13 13 13 13 13 14 14 14 15 15 15 16 16 16 16 16 16 16 16 16 16 16 16
24 24 24 24 24 22 24 23 20 19 18 18 18 17 16 15 15 14 14 13 13 12 12 12 12 12 13 13 13 13 13 14 14 14 14 15 15 15 15 16 16 16 16 16 16 16 16 16 16
25 24 23 23 22 22 23 22 19 18 19 18 17 17 16 15 15 14 13 13 13 12 12 12 12 12 12 12 13 13 13 13 14 14 14 14 14 15 15 15 15 16 16 16 16 16 16 16 16
24 24 22 22 23 22 22 21 18 19 19 18 17 17 16 15 15 14 13 13 13 12 12 12 12 12 12 12 13 13 13 13 13 13 14 14 14 14 15 15 15 15 16 16 16 16 16 16 16
23 24 24 23 23 23 23 20 19 19 19 18 18 17 16 15 15 14 13 13 12 12 12 12 12 12 12 12 12 13 13 13 13 13 13 14 14 14 14 15 15 15 15 15 15 15 15 15 15
23 23 23 23 22 22 22 21 19 19 18 18 17 17 16 15 15 14 13 13 13 12 12 12 12 12 12 12 12 12 12 12 13 13 13 13 13 14 14 14 14 15 15 15 15 15 15 15 15
23 24 23 23 23 21 20 19 20 18 18 18 17 17 16 15 15 14 14 13 13 13 12 12 12 12 12 12 12 12 12 12 12 13 13 13 13 13 14 14 14 14 14 15 15 15 15 15 15
22 22 22 21 22 22 21 18 20 19 18 18 17 17 16 16 15 15 14 13 13 13 12 12 12 12 12 12 12 12 12 12 12 12 12 13 13 13 13 13 14 14 14 14 14 14 14 14 14
Wind_Speed
9 10 7 3 3 2 12 11 12 11 11 11 11 11 15 15 10 8 5 9 17 17 16 14 13 12 11 10 9 9 8 7 7 6 6 5 4 4 3 3 3 3 3 4 4 4 4 4 4
9 7 5 3 1 8 10 9 11 12 11 10 12 15 17 16 14 9 6 11 17 17 15 14 14 12 11 9 8 8 7 7 6 6 5 5 4 4 3 3 3 3 3 3 3 3 3 3 3
11 7 4 3 6 9 9 8 10 13 13 12 14 16 11 10 12 8 9 12 15 14 15 16 14 12 10 9 8 7 7 6 6 5 5 4 4 3 3 2 2 2 2 2 2 2 2 2 3
6 4 4 2 11 11 9 9 11 13 15 16 14 12 12 12 11 11 10 12 14 13 16 15 13 11 10 9 8 7 6 6 6 5 5 4 4 3 3 2 2 2 2 2 2 2 1 2 2
5 2 2 6 10 11 11 12 13 13 16 17 18 16 14 14 13 11 9 11 12 13 15 15 13 11 10 9 8 7 7 6 6 6 5 5 4 4 3 2 2 2 2 1 2 1 1 1 0
3 1 2 5 9 9 10 12 14 14 15 16 14 15 11 12 11 9 8 7 9 12 14 15 13 12 11 10 9 8 8 7 7 7 6 6 5 5 4 4 3 3 2 2 1 1 1 1 1
4 1 3 5 8 8 11 12 14 14 17 15 11 12 9 11 8 7 7 8 7 8 10 12 14 13 13 12 11 10 9 9 9 9 8 8 7 7 6 6 5 4 3 3 2 2 2 2 2
4 3 3 4 6 7 9 13 14 16 15 15 12 9 6 7 7 8 8 7 6 5 4 5 9 11 12 13 14 13 12 11 11 10 10 10 9 9 9 9 8 7 5 5 4 4 4 4 5
4 2 3 3 5 6 9 11 11 13 14 17 15 12 9 8 9 10 9 8 8 7 6 4 1 3 5 9 13 15 14 13 12 12 12 11 11 13 13 13 12 10 8 7 6 6 6 7 8
0 3 3 6 9 9 11 12 7 9 14 13 14 14 12 12 12 11 10 9 9 9 8 7 6 4 1 3 7 11 11 13 13 12 13 13 13 12 11 13 15 13 11 9 9 9 9 10 10
5 5 6 10 9 10 10 12 14 9 10 10 11 11 11 12 11 11 10 8 8 7 8 8 6 5 4 2 2 3 5 8 11 13 13 13 11 9 8 9 12 12 12 11 12 11 11 12 12
7 9 9 9 10 10 10 8 10 14 8 7 8 8 10 11 10 8 8 7 6 7 7 7 7 6 4 4 3 2 2 3 4 7 10 10 5 4 4 7 11 11 11 10 10 9 13 14 13
8 8 11 12 14 16 15 14 11 10 7 6 7 8 10 10 8 7 6 6 6 6 7 7 7 6 5 3 2 3 2 3 4 5 7 8 5 4 3 4 6 8 10 9 5 7 7 7 5
8 10 10 10 10 10 13 11 7 7 5 6 7 9 9 8 8 8 8 8 7 6 6 6 7 7 6 4 3 3 4 4 4 5 7 7 6 4 4 3 3 4 6 7 7 6 4 3 2
10 10 9 6 8 10 7 10 8 5 4 6 7 7 7 7 8 10 10 9 9 8 7 6 7 5 6 6 6 4 4 4 3 4 7 7 6 6 4 4 3 3 5 5 5 5 3 3 2
10 9 6 3 2 5 3 6 7 4 5 6 6 6 6 7 10 11 11 11 10 9 8 7 8 7 6 6 5 4 4 4 3 5 6 7 7 6 4 3 3 3 3 2 2 1 1 1 2
6 4 4 4 1 1 4 7 6 4 5 7 7 7 8 10 12 11 11 11 10 10 9 9 8 7 7 7 5 5 4 4 4 5 6 7 8 7 4 4 4 4 2 1 2 2 1 1 1
4 6 2 5 4 4 6 6 5 5 6 7 7 9 10 11 12 12 12 12 11 11 11 10 9 8 8 6 6 5 5 4 4 4 5 7 7 8 5 5 5 4 3 3 2 2 2 1 1
9 9 6 6 4 2 2 4 5 5 6 8 9 10 11 12 13 13 12 12 12 12 12 11 9 8 7 5 5 5 5 5 5 4 5 6 7 8 6 6 6 5 5 5 4 2 2 1 0
10 9 6 4 4 1 2 4 8 6 5 6 9 11 12 13 13 13 13 12 12 12 12 12 10 10 8 6 6 5 6 5 6 5 4 5 6 7 6 7 6 6 5 6 5 4 2 2 2
11 7 7 7 2 4 5 5 9 7 5 8 10 10 12 12 13 13 13 12 13 13 12 12 11 11 10 8 6 6 5 5 5 5 4 4 5 6 5 6 6 6 7 6 7 6 6 4 3
8 7 7 8 8 6 7 3 9 6 6 9 10 10 11 11 11 12 13 13 13 13 12 12 12 11 11 10 7 8 6 5 6 5 4 4 4 4 5 5 6 7 6 6 7 7 6 5 4
7 7 8 10 9 10 8 4 7 6 7 9 10 10 10 11 12 12 11 12 12 13 12 11 11 11 11 10 9 8 6 6 5 5 4 4 3 3 4 5 6 7 7 8 8 7 7 6 5
7 9 10 9 8 8 4 2 6 5 7 9 9 10 10 10 10 11 11 10 11 11 11 11 11 11 11 10 9 8 8 7 6 5 4 3 3 2 3 4 5 6 6 7 7 8 8 7 7
6 8 6 5 6 1 3 2 7 6 6 7 8 8 9 9 9 10 11 11 11 11 11 11 11 11 11 11 10 10 9 8 6 5 4 4 3 2 2 3 4 4 5 6 6 7 8 9 8
8 6 6 6 5 1 4 4 7 6 5 5 6 7 8 9 8 9 9 9 10 10 10 11 11 11 11 11 10 9 9 7 5 5 5 4 3 2 2 2 3 4 4 5 6 6 7 7 7
7 7 6 6 10 7 5 8 7 5 4 5 6 8 8 8 8 8 8 8 9 9 9 9 10 10 10 10 10 10 10 8 7 7 5 4 4 3 3 2 0 2 4 5 5 5 5 6 6
3 5 6 5 6 5 1 4 4 4 5 6 7 8 8 8 7 7 7 7 7 8 7 8 8 9 9 10 9 9 9 9 8 8 8 7 6 6 5 4 2 2 1 3 4 4 4 4 5
5 3 4 5 3 3 3 3 5 5 4 4 6 6 6 7 6 5 5 6 6 7 7 8 8 8 9 10 9 9 9 9 9 9 8 8 6 6 5 5 4 4 3 3 3 2 3 4 4
2 5 6 5 6 3 3 4 5 4 3 3 4 6 6 6 5 5 6 6 6 7 7 7 8 8 8 9 9 9 9 9 9 9 10 9 9 8 7 6 6 6 6 5 4 3 2 2 3
Wind_Direction
228 225 227 253 260 72 59 53 51 38 38 43 46 63 69 58 57 85 161 134 117 119 127 131 129 127 124 121 120 120 121 122 124 127 128 127 123 120 119 111 87 68 59 56 57 54 56 55 51
248 217 230 247 322 71 62 53 56 47 44 54 57 57 64 61 76 98 111 106 118 124 137 134 134 133 131 130 129 129 130 129 129 129 130 133 131 128 127 117 99 81 66 61 61 56 56 56 51
254 232 243 236 63 66 60 46 53 53 45 58 72 62 51 52 74 98 112 124 120 125 127 128 139 138 138 140 140 141 141 139 139 139 138 139 140 136 134 134 121 99 77 67 67 67 61 58 52
250 239 251 56 77 67 60 56 59 57 51 53 68 69 61 55 80 104 124 119 116 119 122 134 142 144 147 150 152 155 155 155 156 159 161 160 159 155 151 154 148 130 109 90 81 80 75 73 61
241 266 14 74 75 71 56 55 58 54 54 61 79 83 70 62 80 98 106 112 123 127 130 141 148 153 159 162 166 167 171 174 175 176 179 178 176 176 177 176 168 156 141 117 105 108 109 100 77
271 21 54 87 79 72 68 56 58 50 48 49 75 89 76 60 61 77 93 108 121 129 136 143 156 164 171 176 180 182 186 190 191 190 191 191 192 192 192 191 185 177 168 156 149 154 163 171 214
284 277 143 108 88 61 64 61 57 58 43 36 57 88 86 57 47 60 71 69 84 109 132 151 165 174 181 186 189 192 197 201 200 198 200 201 203 204 204 202 196 191 180 180 184 191 201 215 225
293 319 40 72 92 62 56 68 60 55 51 36 41 61 69 52 50 56 59 59 56 69 104 147 168 178 186 191 196 197 201 205 207 207 207 207 209 212 213 209 202 200 196 196 200 209 216 226 229
265 20 40 60 99 71 52 73 73 67 62 56 53 55 51 46 51 48 42 38 34 26 20 34 80 153 186 192 196 197 203 208 210 211 214 214 217 214 209 215 197 196 199 202 207 215 222 229 231
300 64 60 64 83 92 59 46 31 74 50 38 39 40 41 41 44 46 39 28 21 12 5 12 5 351 303 221 187 197 200 202 209 213 207 211 225 225 209 198 188 193 200 206 212 219 228 233 230
49 73 81 76 88 104 89 59 35 69 49 32 28 28 33 39 39 37 35 29 19 9 2 357 351 350 356 326 261 222 210 196 208 214 210 213 225 215 189 172 181 194 203 210 210 215 227 229 225
82 54 64 69 64 72 76 77 60 54 53 41 43 35 36 38 36 31 24 18 7 9 359 350 347 343 346 346 321 287 272 233 226 221 218 206 215 226 207 184 184 191 201 209 197 210 221 227 223
102 96 84 85 86 87 87 84 79 60 55 50 48 44 37 35 29 28 23 17 4 360 349 345 341 339 335 332 308 303 276 261 252 235 242 214 192 210 227 209 192 196 196 195 206 219 228 222 224
120 123 122 115 103 99 97 85 72 54 47 47 42 41 32 26 19 16 16 9 0 353 344 340 339 336 324 309 292 278 276 264 264 253 238 237 206 198 216 225 206 213 208 189 196 218 240 234 223
142 146 140 139 139 147 127 76 62 51 46 43 34 40 27 20 16 19 10 358 354 347 340 338 325 326 323 319 312 302 276 264 252 250 254 251 230 209 211 213 210 214 222 215 210 226 220 210 201
191 184 152 111 174 176 226 85 64 38 35 39 29 28 22 25 19 19 7 356 350 341 335 334 327 328 317 307 295 288 284 277 258 246 248 256 255 225 204 208 213 218 223 230 212 220 227 220 215
220 253 153 139 77 56 72 91 78 46 24 28 23 15 17 18 14 14 6 356 347 338 336 338 336 327 317 306 290 275 269 264 259 246 236 236 240 233 199 204 209 211 190 210 236 190 201 226 238
321 290 247 141 98 82 87 108 98 64 36 24 16 12 17 14 8 11 4 357 350 347 344 340 334 330 323 314 310 303 291 277 254 243 238 234 227 224 210 205 205 197 182 192 215 193 187 209 211
313 306 310 110 108 51 106 132 118 77 46 24 14 10 13 10 4 9 4 1 355 350 344 339 335 332 328 324 318 311 304 298 283 262 245 238 232 223 211 210 204 199 196 189 192 189 176 208 251
301 301 316 105 116 323 233 178 131 103 68 43 21 13 12 7 2 2 359 357 353 349 344 338 339 334 329 323 313 294 292 286 281 272 258 247 240 231 220 207 198 197 196 193 192 179 169 193 198
317 336 341 332 292 246 255 212 147 129 90 54 34 21 16 6 359 358 356 357 353 351 347 342 341 337 335 335 323 313 304 293 288 284 274 253 240 231 221 205 195 198 194 193 193 187 179 192 201
324 24 332 302 284 259 212 252 141 130 74 43 30 24 15 3 1 2 359 358 353 352 349 345 345 344 343 338 328 320 309 300 292 289 277 271 252 236 226 213 202 198 198 194 195 188 179 174 199
325 323 291 277 270 273 248 249 128 107 40 26 24 19 11 5 3 3 3 0 356 355 353 351 350 350 347 340 333 325 317 305 296 294 290 283 261 238 224 215 206 201 200 199 195 186 181 182 190
290 278 259 246 253 258 238 229 100 59 29 15 16 12 6 5 2 3 6 3 358 357 355 354 354 353 349 345 344 340 330 321 318 314 313 306 287 261 239 219 202 200 195 197 197 190 187 189 191
269 302 291 247 214 203 77 89 86 75 45 21 12 9 5 6 5 5 7 0 358 358 358 356 357 356 354 353 355 349 343 337 333 332 324 318 311 291 245 239 207 201 197 196 195 193 194 189 184
317 307 316 317 326 131 169 97 107 91 74 36 23 19 11 8 10 11 10 359 357 358 359 358 357 358 359 0 358 357 356 352 346 341 338 332 329 309 301 249 209 198 198 196 193 198 198 190 186
319 335 343 301 291 291 123 115 130 122 72 36 26 22 16 9 10 12 10 3 1 359 0 0 360 1 2 1 360 5 2 359 354 352 353 347 347 355 356 360 24 200 198 192 188 193 193 185 187
303 318 304 297 335 328 71 104 99 77 38 22 21 20 17 9 10 11 10 8 3 358 359 6 8 7 3 2 6 8 5 7 7 10 10 6 6 8 15 21 28 48 108 160 169 170 173 171 180
332 304 324 298 288 327 339 70 70 62 45 23 19 21 19 6 9 13 13 10 7 2 5 9 8 11 8 5 5 7 11 16 17 14 10 10 11 13 21 31 38 49 55 70 103 129 152 167 178
336 351 339 330 345 328 305 102 91 93 79 46 23 23 22 9 11 23 21 15 10 9 9 13 13 13 11 7 7 10 18 20 18 15 12 14 17 20 26 38 41 48 50 53 64 76 102 143 151
Height
1512 1513 1514 1516 1517 1517 1519 1514 1508 1507 1505 1505 1505 1507 1512 1516 1522 1534 1533 1534 1534 1534 1536 1538 1540 1542 1543 1545 1546 1547 1548 1549 1550 1551 1552 1553 1554 1555 1556 1556 1557 1558 1558 1559 1559 1559 1560 1560 1560
1512 1515 1517 1517 1519 1526 1525 1513 1510 1508 1508 1507 1508 1511 1514 1520 1525 1530 1533 1535 1535 1536 1538 1540 1541 1543 1544 1546 1547 1548 1549 1550 1551 1552 1553 1553 1554 1555 1556 1556 1557 1558 1558 1559 1559 1560 1560 1560 1561
1514 1517 1518 1516 1517 1525 1525 1514 1511 1510 1510 1509 1512 1516 1521 1526 1529 1532 1535 1537 1537 1538 1539 1541 1542 1544 1545 1546 1547 1548 1549 1550 1551 1552 1553 1554 1554 1555 1556 1556 1557 1557 1558 1558 1559 1559 1560 1560 1561
1516 1518 1516 1516 1520 1518 1516 1513 1512 1513 1513 1513 1515 1521 1528 1531 1532 1534 1536 1538 1539 1540 1541 1542 1543 1545 1546 1547 1548 1549 1550 1550 1551 1552 1553 1553 1554 1555 1555 1556 1557 1557 1558 1558 1559 1559 1560 1560 1561
1518 1517 1519 1522 1520 1516 1515 1514 1515 1516 1516 1518 1521 1527 1532 1535 1535 1537 1538 1540 1541 1541 1542 1543 1544 1545 1546 1547 1548 1549 1550 1550 1551 1552 1552 1553 1554 1554 1555 1556 1556 1557 1557 1558 1558 1559 1559 1560 1561
1518 1516 1528 1531 1524 1517 1517 1518 1519 1521 1521 1522 1525 1529 1536 1538 1538 1539 1541 1542 1542 1542 1542 1543 1545 1545 1546 1547 1548 1548 1549 1550 1551 1551 1552 1552 1553 1554 1554 1555 1555 1556 1557 1557 1558 1558 1559 1559 1560
1518 1518 1526 1525 1525 1522 1520 1521 1523 1525 1526 1528 1529 1532 1538 1540 1541 1541 1542 1543 1543 1544 1544 1544 1544 1545 1546 1547 1547 1548 1549 1549 1550 1550 1551 1551 1552 1553 1553 1554 1555 1555 1556 1556 1557 1557 1558 1559 1560
1517 1516 1522 1526 1527 1527 1523 1524 1528 1529 1533 1533 1532 1537 1541 1543 1542 1542 1543 1544 1544 1545 1545 1544 1544 1544 1545 1546 1547 1547 1548 1548 1549 1549 1550 1550 1551 1551 1552 1553 1553 1554 1555 1555 1556 1557 1557 1558 1559
1517 1522 1532 1528 1526 1529 1527 1528 1532 1535 1537 1538 1540 1542 1544 1544 1543 1543 1543 1543 1544 1544 1545 1545 1545 1545 1544 1545 1545 1546 1546 1547 1547 1548 1548 1549 1549 1550 1551 1551 1552 1553 1553 1554 1555 1556 1557 1558 1559
1517 1528 1530 1524 1524 1529 1532 1533 1534 1538 1540 1542 1543 1544 1545 1544 1544 1544 1544 1544 1543 1544 1544 1544 1544 1544 1544 1544 1544 1544 1544 1545 1545 1546 1546 1547 1547 1548 1549 1550 1551 1552 1552 1553 1554 1555 1556 1557 1558
1519 1525 1525 1525 1527 1530 1534 1538 1540 1540 1546 1549 1548 1547 1546 1546 1545 1545 1545 1544 1544 1543 1543 1543 1543 1543 1542 1542 1543 1543 1543 1543 1543 1543 1544 1545 1546 1547 1548 1548 1549 1550 1550 1551 1552 1553 1555 1556 1557
1523 1527 1526 1529 1530 1532 1535 1541 1545 1547 1552 1551 1550 1549 1548 1547 1546 1546 1545 1544 1544 1543 1542 1542 1541 1541 1540 1540 1540 1540 1540 1540 1540 1541 1542 1542 1543 1545 1546 1546 1547 1548 1548 1549 1551 1552 1553 1555 1556
1526 1530 1532 1534 1535 1538 1541 1545 1548 1552 1553 1552 1551 1551 1550 1549 1548 1547 1546 1545 1544 1542 1541 1540 1539 1539 1538 1537 1537 1536 1536 1536 1537 1537 1538 1539 1540 1541 1543 1544 1545 1546 1547 1548 1550 1551 1552 1555 1556
1527 1530 1533 1535 1537 1539 1542 1547 1550 1554 1553 1553 1552 1551 1551 1550 1549 1548 1547 1545 1544 1542 1540 1539 1537 1536 1535 1534 1533 1533 1533 1533 1533 1533 1534 1536 1537 1538 1539 1541 1542 1543 1545 1547 1548 1549 1551 1553 1555
1527 1530 1533 1535 1536 1539 1540 1549 1553 1554 1554 1553 1553 1552 1552 1551 1550 1549 1547 1546 1544 1542 1540 1537 1535 1534 1532 1531 1530 1529 1529 1529 1529 1529 1530 1531 1533 1534 1536 1537 1538 1540 1542 1544 1545 1547 1549 1551 1552
1524 1528 1538 1536 1535 1536 1541 1553 1555 1555 1554 1554 1553 1553 1552 1551 1550 1549 1547 1545 1543 1541 1538 1536 1534 1531 1529 1528 1526 1525 1525 1524 1524 1524 1525 1527 1528 1529 1531 1533 1534 1536 1538 1540 1542 1544 1546 1548 1550
1525 1534 1541 1540 1536 1535 1539 1552 1555 1555 1555 1554 1554 1553 1552 1552 1551 1549 1547 1545 1542 1540 1537 1534 1531 1529 1526 1525 1523 1522 1521 1520 1520 1519 1520 1522 1523 1524 1526 1528 1530 1532 1534 1536 1539 1540 1543 1545 1547
1534 1532 1533 1537 1537 1537 1543 1551 1553 1555 1556 1556 1555 1554 1553 1552 1551 1549 1546 1544 1541 1538 1535 1532 1529 1526 1524 1521 1519 1518 1517 1516 1516 1516 1516 1517 1518 1520 1521 1523 1525 1527 1529 1532 1535 1536 1539 1542 1544
1524 1526 1529 1534 1536 1538 1542 1548 1551 1555 1556 1557 1556 1555 1554 1553 1552 1549 1546 1542 1539 1535 1532 1529 1526 1523 1521 1518 1516 1514 1513 1512 1512 1511 1512 1512 1514 1515 1517 1518 1520 1523 1525 1527 1530 1533 1535 1538 1541
1524 1527 1528 1533 1535 1537 1541 1545 1549 1554 1556 1557 1557 1556 1555 1553 1551 1548 1545 1541 1537 1534 1530 1527 1524 1521 1518 1515 1513 1511 1509 1508 1508 1507 1507 1508 1509 1510 1512 1513 1515 1517 1520 1523 1526 1528 1531 1533 1537
1527 1529 1532 1536 1534 1536 1540 1545 1548 1552 1555 1556 1557 1557 1556 1554 1551 1548 1544 1540 1536 1532 1528 1525 1521 1518 1515 1512 1510 1507 1506 1504 1503 1503 1503 1503 1503 1505 1506 1508 1510 1512 1515 1517 1520 1523 1526 1528 1532
1534 1533 1534 1535 1539 1538 1538 1551 1550 1550 1554 1556 1557 1557 1556 1554 1551 1548 1544 1539 1535 1531 1527 1523 1520 1516 1512 1509 1507 1504 1503 1501 1499 1499 1498 1498 1499 1500 1501 1503 1505 1507 1510 1512 1515 1518 1521 1524 1527
1535 1533 1534 1534 1536 1538 1533 1542 1552 1549 1556 1557 1557 1557 1556 1554 1551 1548 1544 1540 1536 1531 1526 1522 1518 1514 1511 1507 1505 1502 1500 1498 1497 1496 1495 1494 1495 1495 1497 1498 1500 1502 1505 1507 1510 1513 1516 1519 1522
1534 1533 1530 1530 1534 1544 1533 1540 1556 1555 1558 1557 1558 1558 1556 1554 1551 1548 1544 1540 1536 1531 1527 1522 1518 1514 1510 1506 1503 1500 1498 1496 1495 1493 1492 1491 1491 1492 1493 1495 1496 1498 1500 1503 1505 1508 1511 1514 1517
1532 1536 1542 1542 1546 1543 1533 1540 1559 1556 1556 1557 1558 1558 1556 1554 1551 1548 1544 1540 1536 1531 1527 1522 1518 1514 1510 1506 1503 1500 1497 1495 1493 1491 1490 1490 1489 1489 1490 1492 1493 1494 1496 1499 1501 1504 1506 1509 1512
1534 1537 1549 1555 1546 1542 1537 1545 1557 1553 1556 1557 1557 1557 1556 1554 1552 1548 1545 1541 1537 1533 1528 1523 1519 1515 1511 1507 1503 1500 1497 1494 1492 1491 1490 1489 1488 1488 1488 1489 1490 1492 1493 1495 1498 1500 1503 1505 1508
1538 1533 1534 1542 1537 1537 1537 1547 1553 1552 1554 1556 1556 1557 1556 1554 1552 1549 1546 1542 1538 1534 1529 1525 1521 1516 1512 1508 1505 1501 1498 1495 1493 1492 1490 1489 1488 1487 1487 1488 1488 1490 1491 1493 1494 1497 1499 1501 1504
1539 1538 1538 1541 1549 1552 1542 1544 1553 1554 1555 1555 1556 1556 1556 1554 1552 1549 1546 1543 1539 1535 1531 1527 1523 1519 1514 1511 1507 1504 1500 1497 1495 1493 1491 1490 1488 1487 1487 1487 1487 1488 1489 1491 1492 1494 1496 1498 1500
1540 1537 1538 1539 1540 1554 1558 1561 1550 1553 1554 1555 1556 1556 1555 1554 1552 1549 1546 1543 1540 1536 1532 1528 1524 1520 1516 1513 1509 1506 1503 1500 1498 1495 1493 1492 1490 1489 1488 1488 1488 1488 1489 1490 1491 1493 1494 1496 1499
1542 1543 1544 1550 1547 1543 1551 1563 1550 1552 1554 1555 1556 1556 1555 1554 1552 1549 1547 1544 1541 1537 1534 1530 1526 1522 1519 1516 1512 1509 1506 1503 1500 1498 1496 1494 1492 1491 1490 1489 1489 1489 1489 1490 1491 1492 1494 1495 1497